FW8496 Weather Reports


Display with metric or nautical units.
time (UTC)temp
F
wind
direction
speed
MPH
gust
MPH
rain 1hr
in
rain 24hr
in
rain mn
in
humidity
%
barometer
mb
20260508222543 82 334 3.0 12.0 0.00 0.00 0.00 13 1015.2
20260508222042 81 54 6.0 12.0 0.00 0.00 0.00 13 1015.1
20260508221557 81 329 5.0 12.0 0.00 0.00 0.00 14 1015.3
20260508221044 81 340 3.0 14.0 0.00 0.00 0.00 14 1015.3
20260508220542 81 352 7.0 14.0 0.00 0.00 0.00 14 1015.3
20260508220053 81 333 4.0 8.0 0.00 0.00 0.00 13 1015.4
20260508215542 81 333 2.0 10.0 0.00 0.00 0.00 13 1015.6
20260508215042 81 323 3.0 10.0 0.00 0.00 0.00 13 1015.7
20260508214553 82 315 2.0 13.0 0.00 0.00 0.00 13 1015.8
20260508214043 81 290 4.0 14.0 0.00 0.00 0.00 13 1015.8
20260508213542 80 285 5.0 14.0 0.00 0.00 0.00 14 1016.0
20260508213112 80 64 8.0 14.0 0.00 0.00 0.00 13 1016.0
20260508212544 81 342 2.0 12.0 0.00 0.00 0.00 13 1016.1
20260508212042 80 157 2.0 13.0 0.00 0.00 0.00 14 1016.0
20260508211549 78 103 4.0 14.0 0.00 0.00 0.00 15 1016.2
20260508211042 79 326 9.0 17.0 0.00 0.00 0.00 14 1016.2
20260508210543 80 271 9.0 17.0 0.00 0.00 0.00 14 1016.2
20260508210048 81 278 9.0 17.0 0.00 0.00 0.00 13 1016.2
20260508205542 80 142 4.0 11.0 0.00 0.00 0.00 14 1016.2
20260508205042 78 250 2.0 10.0 0.00 0.00 0.00 14 1016.4
20260508204550 77 327 6.0 10.0 0.00 0.00 0.00 15 1016.4
20260508204042 76 348 3.0 14.0 0.00 0.00 0.00 16 1016.4
20260508203543 75 101 6.0 16.0 0.00 0.00 0.00 16 1016.6
20260508203102 75 346 7.0 16.0 0.00 0.00 0.00 16 1016.7
20260508202542 75 5 10.0 18.0 0.00 0.00 0.00 15 1016.7
20260508202044 76 355 8.0 23.0 0.00 0.00 0.00 15 1016.8
20260508201547 76 302 9.0 23.0 0.00 0.00 0.00 15 1016.8
20260508201044 77 330 8.0 16.0 0.00 0.00 0.00 15 1017.0
20260508200544 76 297 3.0 15.0 0.00 0.00 0.00 15 1017.0
20260508200054 76 317 9.0 15.0 0.00 0.00 0.00 15 1017.1
20260508195543 78 5 10.0 15.0 0.00 0.00 0.00 14 1017.1
20260508195042 79 288 2.0 10.0 0.00 0.00 0.00 14 1017.2
20260508194548 78 254 5.0 12.0 0.00 0.00 0.00 14 1017.1
20260508194042 77 289 2.0 12.0 0.00 0.00 0.00 15 1017.2
20260508193542 77 267 4.0 13.0 0.00 0.00 0.00 15 1017.3
20260508193117 76 310 7.0 21.0 0.00 0.00 0.00 16 1017.3
20260508192542 75 286 4.0 21.0 0.00 0.00 0.00 16 1017.4
20260508192042 74 292 7.0 20.0 0.00 0.00 0.00 17 1017.2
20260508191553 73 324 6.0 17.0 0.00 0.00 0.00 17 1017.4
20260508191043 73 343 7.0 18.0 0.00 0.00 0.00 17 1017.4
20260508190542 74 311 4.0 19.0 0.00 0.00 0.00 17 1017.5
20260508190048 73 284 10.0 19.0 0.00 0.00 0.00 17 1017.5
20260508185543 72 360 7.0 19.0 0.00 0.00 0.00 17 1017.6
20260508185043 72 19 6.0 15.0 0.00 0.00 0.00 17 1017.5
20260508184610 71 49 6.0 21.0 0.00 0.00 0.00 17 1017.5
20260508184043 71 287 13.0 21.0 0.00 0.00 0.00 18 1017.7
20260508183542 71 324 2.0 15.0 0.00 0.00 0.00 18 1017.7
20260508183048 71 45 8.0 16.0 0.00 0.00 0.00 18 1017.8
20260508182543 71 324 9.0 18.0 0.00 0.00 0.00 18 1017.9
20260508182042 71 28 10.0 18.0 0.00 0.00 0.00 18 1018.0
20260508181549 70 316 7.0 18.0 0.00 0.00 0.00 18 1018.0
20260508181044 70 328 6.0 21.0 0.00 0.00 0.00 19 1018.0
20260508180543 69 333 12.0 21.0 0.00 0.00 0.00 19 1017.9
20260508180056 69 61 11.0 20.0 0.00 0.00 0.00 18 1018.1
20260508175542 69 325 10.0 17.0 0.00 0.00 0.00 19 1018.1
20260508175043 68 65 6.0 18.0 0.00 0.00 0.00 20 1018.1
20260508174606 69 355 12.0 20.0 0.00 0.00 0.00 19 1018.3
20260508174043 68 45 8.0 20.0 0.00 0.00 0.00 20 1018.4
20260508173543 68 12 8.0 20.0 0.00 0.00 0.00 21 1018.6
20260508173059 68 348 13.0 24.0 0.00 0.00 0.00 20 1018.5
20260508172542 67 24 11.0 24.0 0.00 0.00 0.00 20 1018.6
20260508172042 68 337 10.0 21.0 0.00 0.00 0.00 21 1018.5
20260508171612 67 360 12.0 21.0 0.00 0.00 0.00 21 1018.5
20260508171042 67 16 11.0 17.0 0.00 0.00 0.00 21 1018.6
20260508170542 67 352 8.0 17.0 0.00 0.00 0.00 22 1018.6
20260508170050 67 327 11.0 18.0 0.00 0.00 0.00 21 1018.6
20260508165542 67 350 9.0 18.0 0.00 0.00 0.00 21 1018.6
20260508165042 67 16 8.0 17.0 0.00 0.00 0.00 21 1018.7
20260508164548 67 94 8.0 17.0 0.00 0.00 0.00 22 1018.7
20260508164043 67 36 10.0 16.0 0.00 0.00 0.00 21 1018.8
20260508163542 66 28 6.0 13.0 0.00 0.00 0.00 21 1018.8
20260508163043 66 28 6.0 12.0 0.00 0.00 0.00 20 1018.9
20260508162545 66 22 4.0 11.0 0.00 0.00 0.00 21 1018.8
20260508162043 65 335 4.0 11.0 0.00 0.00 0.00 21 1018.9
20260508161551 64 329 5.0 11.0 0.00 0.00 0.00 21 1018.9
20260508161043 64 19 4.0 12.0 0.00 0.00 0.00 21 1018.9
20260508160545 63 347 5.0 12.0 0.00 0.00 0.00 22 1018.9
20260508160051 63 352 6.0 11.0 0.00 0.00 0.00 22 1018.9
20260508155542 63 27 5.0 11.0 0.00 0.00 0.00 22 1018.9
20260508155042 62 30 7.0 12.0 0.00 0.00 0.00 22 1019.1
20260508154554 62 39 5.0 12.0 0.00 0.00 0.00 22 1019.0
20260508154042 62 311 6.0 12.0 0.00 0.00 0.00 23 1019.0
20260508153543 61 352 6.0 11.0 0.00 0.00 0.00 22 1018.9
20260508153053 61 5 5.0 10.0 0.00 0.00 0.00 22 1019.0
20260508152542 60 324 6.0 10.0 0.00 0.00 0.00 23 1019.0
20260508152042 60 347 5.0 12.0 0.00 0.00 0.00 22 1019.1
20260508151554 59 38 6.0 12.0 0.00 0.00 0.00 23 1019.1
20260508151042 59 313 8.0 13.0 0.00 0.00 0.00 23 1018.9
20260508150547 59 355 7.0 13.0 0.00 0.00 0.00 23 1019.0
20260508150050 58 340 6.0 13.0 0.00 0.00 0.00 23 1018.9
20260508145543 58 5 8.0 11.0 0.00 0.00 0.00 23 1018.8
20260508145043 58 350 7.0 12.0 0.00 0.00 0.00 24 1018.9
20260508144548 58 360 5.0 12.0 0.00 0.00 0.00 25 1018.9
20260508144043 58 360 7.0 14.0 0.00 0.00 0.00 24 1018.8
20260508143543 57 329 6.0 14.0 0.00 0.00 0.00 25 1018.8
20260508143056 57 337 8.0 13.0 0.00 0.00 0.00 25 1018.8
20260508142542 57 333 6.0 13.0 0.00 0.00 0.00 25 1018.9
20260508142042 57 350 8.0 13.0 0.00 0.00 0.00 25 1018.9
20260508141544 57 12 5.0 13.0 0.00 0.00 0.00 26 1018.9
20260508141042 56 28 6.0 13.0 0.00 0.00 0.00 26 1018.8
20260508140542 56 352 7.0 14.0 0.00 0.00 0.00 25 1018.8
20260508140048 56 347 8.0 14.0 0.00 0.00 0.00 25 1018.8
20260508135543 56 5 4.0 11.0 0.00 0.00 0.00 25 1018.8
20260508135044 56 321 4.0 11.0 0.00 0.00 0.00 26 1018.7
20260508134601 55 336 6.0 11.0 0.00 0.00 0.00 26 1018.7
20260508134042 55 342 5.0 11.0 0.00 0.00 0.00 27 1018.7
20260508133542 54 338 4.0 9.0 0.00 0.00 0.00 28 1018.6
20260508133109 54 24 4.0 9.0 0.00 0.00 0.00 29 1018.6
20260508132542 53 352 3.0 9.0 0.00 0.00 0.00 30 1018.6
20260508132042 53 350 4.0 7.0 0.00 0.00 0.00 30 1018.5
20260508131550 52 351 3.0 5.0 0.00 0.00 0.00 30 1018.4
20260508131042 51 28 2.0 5.0 0.00 0.00 0.00 30 1018.3
20260508130543 51 355 3.0 6.0 0.00 0.00 0.00 31 1018.2
20260508130049 51 360 3.0 7.0 0.00 0.00 0.00 31 1018.2
20260508125543 50 5 3.0 8.0 0.00 0.00 0.00 31 1018.2
20260508125042 50 27 5.0 9.0 0.00 0.00 0.00 32 1018.1
20260508124545 49 30 6.0 9.0 0.00 0.00 0.00 32 1018.0
20260508124042 48 30 4.0 7.0 0.00 0.00 0.00 33 1018.0
20260508123542 47 49 3.0 9.0 0.00 0.00 0.00 33 1018.0
20260508123101 47 50 5.0 9.0 0.00 0.00 0.00 33 1017.9
20260508122542 47 63 4.0 9.0 0.00 0.00 0.00 33 1017.9
20260508122043 47 42 4.0 9.0 0.00 0.00 0.00 33 1017.8
20260508121558 46 51 3.0 10.0 0.00 0.00 0.00 32 1017.8
20260508121044 46 55 6.0 11.0 0.00 0.00 0.00 31 1017.8
20260508120543 46 55 6.0 11.0 0.00 0.00 0.00 30 1017.7
20260508120051 45 43 6.0 10.0 0.00 0.00 0.00 29 1017.7
20260508115543 45 53 6.0 10.0 0.00 0.00 0.00 29 1017.7
20260508115042 46 44 6.0 10.0 0.00 0.00 0.00 28 1017.6
20260508114559 46 67 6.0 10.0 0.00 0.00 0.00 27 1017.6
20260508114043 46 74 4.0 10.0 0.00 0.00 0.00 27 1017.6
20260508113543 46 28 6.0 10.0 0.00 0.00 0.00 27 1017.7
20260508113056 47 30 5.0 9.0 0.00 0.00 0.00 27 1017.7
20260508112543 48 360 4.0 8.0 0.00 0.00 0.00 28 1017.6
20260508112043 48 22 4.0 9.0 0.00 0.00 0.00 28 1017.6
20260508111556 49 26 5.0 9.0 0.00 0.00 0.00 29 1017.6
20260508111044 49 35 5.0 8.0 0.00 0.00 0.00 29 1017.5
20260508110543 49 25 4.0 7.0 0.00 0.00 0.00 29 1017.4
20260508110051 49 19 3.0 4.0 0.00 0.00 0.00 29 1017.3
20260508105543 50 13 3.0 4.0 0.00 0.00 0.00 28 1017.4
20260508105044 50 13 2.0 3.0 0.00 0.00 0.00 28 1017.4
20260508104552 50 13 2.0 3.0 0.00 0.00 0.00 28 1017.2
20260508104042 51 13 1.0 3.0 0.00 0.00 0.00 27 1017.2
20260508103543 51 13 2.0 4.0 0.00 0.00 0.00 26 1017.2
20260508103053 51 13 2.0 5.0 0.00 0.00 0.00 26 1017.1
20260508102543 51 14 3.0 5.0 0.00 0.00 0.00 26 1017.0
20260508102044 51 30 4.0 5.0 0.00 0.00 0.00 27 1017.0
20260508101549 51 21 3.0 6.0 0.00 0.00 0.00 26 1017.0
20260508101043 50 31 3.0 6.0 0.00 0.00 0.00 26 1016.9
20260508100543 49 34 4.0 6.0 0.00 0.00 0.00 27 1016.8
20260508100048 48 40 4.0 6.0 0.00 0.00 0.00 27 1016.9
20260508095543 47 25 3.0 5.0 0.00 0.00 0.00 28 1016.9
20260508095044 46 40 2.0 4.0 0.00 0.00 0.00 28 1016.9
20260508094602 45 48 3.0 5.0 0.00 0.00 0.00 28 1016.9
20260508094042 45 80 2.0 5.0 0.00 0.00 0.00 27 1017.0
20260508093542 45 73 2.0 3.0 0.00 0.00 0.00 26 1016.8
20260508093053 45 73 2.0 4.0 0.00 0.00 0.00 27 1017.0
20260508092542 45 73 2.0 5.0 0.00 0.00 0.00 26 1017.0
20260508092042 45 73 3.0 5.0 0.00 0.00 0.00 26 1017.1
20260508091611 45 76 4.0 5.0 0.00 0.00 0.00 26 1017.1
20260508091042 44 79 3.0 7.0 0.00 0.00 0.00 27 1017.1
20260508090547 45 80 4.0 7.0 0.00 0.00 0.00 27 1017.1
20260508090059 44 85 4.0 7.0 0.00 0.00 0.00 27 1017.0
20260508085543 44 82 4.0 7.0 0.00 0.00 0.00 27 1017.1
20260508085045 44 75 3.0 5.0 0.00 0.00 0.00 27 1017.2
20260508084552 44 78 3.0 6.0 0.00 0.00 0.00 27 1017.2
20260508084043 44 86 2.0 7.0 0.00 0.00 0.00 27 1017.2
20260508083543 44 85 4.0 7.0 0.00 0.00 0.00 26 1017.2
20260508083049 44 81 2.0 5.0 0.00 0.00 0.00 26 1017.3
20260508082542 44 87 3.0 5.0 0.00 0.00 0.00 26 1017.3
20260508082045 44 92 3.0 6.0 0.00 0.00 0.00 26 1017.3
20260508081552 44 86 1.0 8.0 0.00 0.00 0.00 26 1017.4
20260508081042 44 84 3.0 8.0 0.00 0.00 0.00 26 1017.3
20260508080542 44 87 5.0 8.0 0.00 0.00 0.00 26 1017.4
20260508080051 45 83 3.0 6.0 0.00 0.00 0.00 26 1017.4
20260508075543 45 81 3.0 6.0 0.00 0.00 0.00 26 1017.4
20260508075042 45 90 3.0 6.0 0.00 0.00 0.00 26 1017.4
20260508074549 45 90 3.0 4.0 0.00 0.00 0.00 26 1017.5
20260508074042 45 88 2.0 6.0 0.00 0.00 0.00 25 1017.5
20260508073543 45 88 3.0 6.0 0.00 0.00 0.00 25 1017.6
20260508073052 45 86 3.0 5.0 0.00 0.00 0.00 25 1017.6
20260508072542 45 78 3.0 5.0 0.00 0.00 0.00 25 1017.7
20260508072042 45 84 2.0 3.0 0.00 0.00 0.00 25 1017.7
20260508071553 45 87 1.0 4.0 0.00 0.00 0.00 25 1017.7
20260508071043 45 87 1.0 6.0 0.00 0.00 0.00 25 1017.6
20260508070542 45 87 2.0 6.0 0.00 0.00 0.00 26 1017.6
20260508070046 45 94 3.0 6.0 0.00 0.00 0.00 25 1017.6
20260508065542 45 92 1.0 6.0 0.00 0.00 0.00 25 1017.6
20260508065042 46 93 3.0 7.0 0.00 0.00 0.00 25 1017.5
20260508064552 46 80 3.0 7.0 0.00 0.00 0.00 25 1017.6
20260508064043 46 88 2.0 7.0 0.00 0.00 0.00 24 1017.5
20260508063543 46 88 3.0 7.0 0.00 0.00 0.00 24 1017.5
20260508063125 47 91 1.0 3.0 0.00 0.00 0.00 24 1017.5
20260508062542 47 280 1.0 3.0 0.00 0.00 0.00 24 1017.5
20260508062046 48 280 1.0 3.0 0.00 0.00 0.00 23 1017.4
20260508061554 48 280 1.0 3.0 0.00 0.00 0.00 23 1017.4
20260508061043 48 280 1.0 2.0 0.00 0.00 0.00 23 1017.5
20260508060542 49 280 1.0 2.0 0.00 0.00 0.00 22 1017.5
20260508060045 49 280 0.0 2.0 0.00 0.00 0.00 22 1017.5
20260508055543 49 0 0.0 2.0 0.00 0.00 0.00 21 1017.5
20260508055043 49 280 1.0 2.0 0.00 0.00 0.00 22 1017.6
20260508054549 49 280 1.0 3.0 0.00 0.00 0.00 22 1017.6
20260508054043 50 0 0.0 3.0 0.00 0.00 0.00 22 1017.6
20260508053542 50 280 1.0 3.0 0.00 0.00 0.00 20 1017.6
20260508053054 50 0 0.0 2.0 0.00 0.00 0.00 20 1017.6
20260508052542 50 0 0.0 4.0 0.00 0.00 0.00 21 1017.7
20260508052043 50 65 0.0 4.0 0.00 0.00 0.00 22 1017.6
20260508051607 50 0 2.0 4.0 0.00 0.00 0.00 20 1017.7
20260508051043 50 93 2.0 6.0 0.00 0.00 0.00 21 1017.7
20260508050542 50 93 3.0 6.0 0.00 0.00 0.00 21 1017.7
20260508050047 50 88 3.0 6.0 0.00 0.00 0.00 21 1017.7
20260508045542 51 98 2.0 4.0 0.00 0.00 0.00 21 1017.6
20260508045044 51 95 1.0 3.0 0.00 0.00 0.00 21 1017.7
20260508044547 51 95 1.0 3.0 0.00 0.00 0.00 21 1017.7
20260508044041 52 95 1.0 4.0 0.00 0.00 0.00 21 1017.7
20260508043542 52 95 2.0 6.0 0.00 0.00 0.00 21 1017.7
20260508043048 53 92 3.0 6.0 0.00 0.00 0.00 20 1017.7
20260508042543 54 102 2.0 5.0 0.00 0.00 0.00 20 1017.7
20260508042042 54 131 3.0 5.0 0.00 0.00 0.00 20 1017.7
20260508041551 55 137 2.0 4.0 0.00 0.00 0.00 19 1017.7
20260508041042 55 303 0.0 4.0 0.00 0.00 0.00 18 1017.7
20260508040542 55 303 1.0 5.0 0.00 0.00 0.00 18 1017.6
20260508040051 56 303 2.0 7.0 0.00 0.00 0.00 18 1017.6
20260508035542 56 305 3.0 8.0 0.00 0.00 0.00 18 1017.5
20260508035042 56 294 3.0 8.0 0.00 0.00 0.00 18 1017.5
20260508034554 56 286 2.0 4.0 0.00 0.00 0.00 18 1017.5
20260508034043 57 269 2.0 4.0 0.00 0.00 0.00 18 1017.5
20260508033541 57 254 2.0 4.0 0.00 0.00 0.00 18 1017.3
20260508033054 57 242 1.0 7.0 0.00 0.00 0.00 18 1017.3
20260508032546 57 297 2.0 9.0 0.00 0.00 0.00 18 1017.1
20260508032043 57 296 3.0 9.0 0.00 0.00 0.00 17 1017.0
20260508031548 57 285 3.0 8.0 0.00 0.00 0.00 17 1016.9
20260508031042 58 254 3.0 7.0 0.00 0.00 0.00 16 1016.7
20260508030542 58 257 2.0 7.0 0.00 0.00 0.00 14 1016.7
20260508030057 59 232 2.0 5.0 0.00 0.00 0.00 14 1016.6
20260508025542 59 225 2.0 6.0 0.00 0.00 0.00 14 1016.4
20260508025042 59 231 2.0 6.0 0.00 0.00 0.00 14 1016.4
20260508024550 60 240 3.0 8.0 0.00 0.00 0.00 13 1016.4
20260508024042 60 240 3.0 9.0 0.00 0.00 0.00 13 1016.2
20260508023542 61 233 4.0 10.0 0.00 0.00 0.00 12 1016.2
20260508023052 61 180 5.0 10.0 0.00 0.00 0.00 12 1016.1
20260508022542 61 215 6.0 12.0 0.00 0.00 0.00 12 1016.0
20260508022043 62 211 4.0 12.0 0.00 0.00 0.00 12 1016.0
20260508021554 62 205 6.0 11.0 0.00 0.00 0.00 11 1016.1
20260508021042 63 198 5.0 9.0 0.00 0.00 0.00 11 1016.0
20260508020542 64 184 4.0 12.0 0.00 0.00 0.00 11 1015.9
20260508020100 64 196 4.0 12.0 0.00 0.00 0.00 11 1015.8
20260508015542 65 171 5.0 11.0 0.00 0.00 0.00 11 1015.8
20260508015042 65 205 5.0 12.0 0.00 0.00 0.00 11 1015.9
20260508014547 66 187 7.0 12.0 0.00 0.00 0.00 10 1016.0
20260508014042 66 149 6.0 14.0 0.00 0.00 0.00 10 1015.9
20260508013540 67 183 5.0 14.0 0.00 0.00 0.00 10 1015.9
20260508013046 67 199 4.0 10.0 0.00 0.00 0.00 11 1015.8
20260508012542 68 202 5.0 13.0 0.00 0.00 0.00 11 1015.8
20260508012043 68 170 7.0 14.0 0.00 0.00 0.00 10 1015.8
20260508011550 68 174 6.0 14.0 0.00 0.00 0.00 10 1015.7
20260508011042 69 225 6.0 11.0 0.00 0.00 0.00 10 1015.7
20260508010542 69 225 5.0 12.0 0.00 0.00 0.00 11 1015.8
20260508010100 70 223 7.0 14.0 0.00 0.00 0.00 10 1015.8
20260508005541 70 246 7.0 14.0 0.00 0.00 0.00 10 1015.8
20260508005043 71 238 5.0 13.0 0.00 0.00 0.00 10 1015.8
20260508004547 72 205 4.0 13.0 0.00 0.00 0.00 10 1015.8
20260508004043 72 196 3.0 10.0 0.00 0.00 0.00 10 1015.8
20260508003542 72 245 4.0 12.0 0.00 0.00 0.00 10 1015.9
20260508003047 73 188 6.0 12.0 0.00 0.00 0.00 10 1015.9
20260508002542 73 202 5.0 12.0 0.00 0.00 0.00 10 1015.9
20260508002042 74 194 2.0 10.0 0.00 0.00 0.00 10 1015.9
20260508001551 74 171 4.0 10.0 0.00 0.00 0.00 10 1015.9
20260508001042 74 200 3.0 9.0 0.00 0.00 0.00 10 1016.0
20260508000542 74 219 3.0 11.0 0.00 0.00 0.00 10 1016.0
20260508000048 74 241 2.0 11.0 0.00 0.00 0.00 10 1016.0
20260507235542 74 211 5.0 11.0 0.00 0.00 0.00 10 1016.0
20260507235042 74 134 3.0 10.0 0.00 0.00 0.00 11 1016.0
20260507234548 74 188 4.0 10.0 0.00 0.00 0.00 11 1016.1
20260507234042 74 207 2.0 9.0 0.00 0.00 0.00 11 1016.3
20260507233543 74 228 4.0 11.0 0.00 0.00 0.00 12 1016.2
20260507233051 73 219 0.0 14.0 0.00 0.00 0.00 12 1016.2
20260507232543 73 242 7.0 14.0 0.00 0.00 0.00 12 1016.3
20260507232042 73 254 7.0 14.0 0.00 0.00 0.00 12 1016.2
20260507231551 74 188 8.0 14.0 0.00 0.00 0.00 13 1016.3
20260507231042 74 269 4.0 13.0 0.00 0.00 0.00 14 1016.2
20260507230542 74 234 5.0 13.0 0.00 0.00 0.00 15 1016.4
20260507230108 74 304 7.0 15.0 0.00 0.00 0.00 14 1016.4
20260507225542 74 221 8.0 15.0 0.00 0.00 0.00 14 1016.4
20260507225042 75 311 8.0 15.0 0.00 0.00 0.00 14 1016.4
20260507224549 75 331 7.0 11.0 0.00 0.00 0.00 15 1016.4
20260507224041 75 281 3.0 9.0 0.00 0.00 0.00 16 1016.4
20260507223542 75 248 5.0 9.0 0.00 0.00 0.00 17 1016.4
20260507223138 74 213 3.0 9.0 0.00 0.00 0.00 17 1016.4